TJS-2 (41911 NORAD) Tracking and Keplerian Element Data

This shows tracking and keplerian element data for the satellite.

Feedback or suggestion? Click here.




ElementValue
Catalog41911
NameTJS-2
Epoch Orbit855
Epoch Day114.23601639
Epoch Year2019
RAAN296.632
Inclination0.0373
Eccentricity0.0006656
Argument of Perigee49.3225
Mean Anonmoly58.5176
Mean Motion1.00273586
Decay Rate-3.57E-06
L11 41911U 17001A 19114.23601639 -.00000357 00000-0 00000+0 0 9996
L22 41911 0.0373 296.6320 0006656 49.3225 58.5176 1.00273586 8559

Live tracking and technical data element details for TJS-2 (NORAD 41911). TJS-2 can be tracked NOW for your location showing map with azimuth and elevation plus other details from your city location.

Track the satellite on the map from your city or location and see movement details for azimuth, elevation, latitude, longitude, range, height, and movement on the map or in text.







IsCatalogInMostPopularTable: catalog: 41911, numindb: 200
Update: records affected: 1



GetName: 41911 TJS-2

Hit Count: updated at: Thu, 25 Apr 2019 20:42:01 GMT